Tracking 32964 objects as of 21-Jan-2026
HD Live streaming from Space Station
objects crossing your sky now

COSMOS 970 DEB

Track COSMOS 970 DEB now!
10-day predictions


NORAD ID: 12869
Int'l Code: 1977-121AX
Perigee: 918.6 km
Apogee: 1,043.7 km
Inclination: 65.8 °
Period: 104.6 minutes
Semi major axis: 7352 km
RCS: 0.0101 m2 (small)
Launch date: December 21, 1977
Source: Commonwealth of Independent States (former USSR) (CIS)
Launch site: TYURATAM MISSILE AND SPACE COMPLEX (TTMTR)

Note: This is SATELLITE DEBRIS
Your satellite tracking list
Your tracking list is empty




NASA's NSSDC Master Catalog

Two Line Element Set (TLE):
1 12869U 77121AX  26020.23455218  .00001015  00000-0  10778-2 0  9996
2 12869  65.7905 299.8307 0085097  10.8717 145.1699 13.77152645398614
Source of the keplerian elements: AFSPC